• In Latvia
  • List of Countries
  • For 7 days
  • Water Temperature
  • Satellite Maps
  • Weather Map
  • Weather Widgets
  • user-avatar
    Login

    Hourly Weather Igls

    Today, 19 February, Monday

    Time Temperature Precipitation Wind Pressure Humidity
    00:00 -6°C° 0 mm 1 mps 685 mmHg 90%
    01:00 -5°C° 0 mm 2 mps 684 mmHg 86%
    02:00 -4°C° 0 mm 1 mps 684 mmHg 86%
    03:00 -4°C° 0 mm 1 mps 684 mmHg 86%
    04:00 -6°C° 0 mm 1 mps 683 mmHg 86%
    05:00 -6°C° 0 mm 1 mps 683 mmHg 84%
    06:00 -6°C° 0 mm 1 mps 683 mmHg 83%
    07:00 -7°C° 0 mm 1 mps 683 mmHg 82%
    08:00 -3°C° 0 mm 1 mps 683 mmHg 78%
    09:00 -2°C° 0 mm 0 mps 683 mmHg 74%
    10:00 0°C° 0 mm 0 mps 683 mmHg 70%
    11:00 +1°C° 0 mm 0 mps 683 mmHg 72%
    12:00 +2°C° 0 mm 1 mps 682 mmHg 73%
    13:00 +3°C° 0 mm 1 mps 682 mmHg 75%
    14:00 +3°C° 0.1 mm 1 mps 682 mmHg 79%
    15:00 +3°C° 0.1 mm 1 mps 681 mmHg 83%
    16:00 +2°C° 0.1 mm 1 mps 681 mmHg 87%
    17:00 +1°C° 0.1 mm 1 mps 681 mmHg 90%
    18:00 0°C° 0.1 mm 1 mps 681 mmHg 93%
    19:00 -1°C° 0.1 mm 1 mps 681 mmHg 96%
    20:00 -1°C° 0 mm 1 mps 681 mmHg 96%
    21:00 -2°C° 0 mm 1 mps 681 mmHg 95%
    22:00 -2°C° 0 mm 1 mps 681 mmHg 95%
    23:00 -3°C° 0 mm 1 mps 680 mmHg 95%

    Tomorrow, 20 February, Tuesday

    Time Temperature Precipitation Wind Pressure Humidity
    00:00 -3°C° 0 mm 1 mps 680 mmHg 94%
    01:00 -4°C° 0 mm 1 mps 680 mmHg 94%
    02:00 -4°C° 0 mm 1 mps 679 mmHg 93%
    03:00 -6°C° 0 mm 1 mps 679 mmHg 92%
    04:00 -6°C° 0 mm 1 mps 679 mmHg 92%
    05:00 -6°C° 0 mm 1 mps 679 mmHg 91%
    06:00 -6°C° 0 mm 1 mps 679 mmHg 90%
    07:00 -7°C° 0 mm 1 mps 678 mmHg 89%
    08:00 -4°C° 0 mm 1 mps 679 mmHg 86%
    09:00 -2°C° 0 mm 1 mps 679 mmHg 83%
    10:00 -1°C° 0 mm 1 mps 679 mmHg 79%
    11:00 0°C° 0 mm 1 mps 679 mmHg 79%
    12:00 -1°C° 0 mm 2 mps 679 mmHg 78%
    13:00 -1°C° 0 mm 2 mps 679 mmHg 77%
    14:00 -1°C° 0.1 mm 2 mps 678 mmHg 80%
    15:00 -1°C° 0.1 mm 2 mps 678 mmHg 83%
    16:00 -2°C° 0.1 mm 2 mps 678 mmHg 86%
    17:00 -3°C° 0.2 mm 2 mps 678 mmHg 89%
    18:00 -4°C° 0.2 mm 2 mps 678 mmHg 91%
    19:00 -5°C° 0.2 mm 2 mps 679 mmHg 94%
    20:00 -5°C° 0.1 mm 2 mps 679 mmHg 95%
    21:00 -3°C° 0.1 mm 1 mps 679 mmHg 95%
    22:00 -4°C° 0.1 mm 1 mps 679 mmHg 95%
    23:00 -4°C° 0.1 mm 1 mps 680 mmHg 95%

    Day after tomorrow, 21 February, Wednesday

    Time Temperature Precipitation Wind Pressure Humidity
    00:00 -6°C° 0.1 mm 1 mps 680 mmHg 95%
    01:00 -7°C° 0.1 mm 1 mps 680 mmHg 95%
    02:00 -7°C° 0.1 mm 1 mps 680 mmHg 94%
    03:00 -7°C° 0.1 mm 1 mps 680 mmHg 94%
    04:00 -7°C° 0.1 mm 1 mps 680 mmHg 93%
    05:00 -7°C° 0.1 mm 1 mps 680 mmHg 93%
    06:00 -8°C° 0.1 mm 1 mps 680 mmHg 93%
    07:00 -8°C° 0.1 mm 1 mps 680 mmHg 92%
    08:00 -6°C° 0.1 mm 1 mps 680 mmHg 91%
    09:00 -3°C° 0.1 mm 1 mps 681 mmHg 89%
    10:00 -1°C° 0.1 mm 1 mps 681 mmHg 87%
    11:00 -2°C° 0.1 mm 2 mps 681 mmHg 86%
    12:00 -2°C° 0.1 mm 2 mps 680 mmHg 85%
    13:00 -1°C° 0.1 mm 2 mps 680 mmHg 84%
    14:00 -1°C° 0.1 mm 2 mps 680 mmHg 86%
    15:00 -1°C° 0.1 mm 2 mps 679 mmHg 87%
    16:00 -1°C° 0.1 mm 2 mps 679 mmHg 89%
    17:00 -2°C° 0.2 mm 2 mps 679 mmHg 91%
    18:00 -3°C° 0.2 mm 2 mps 679 mmHg 93%
    19:00 -4°C° 0.2 mm 2 mps 679 mmHg 95%
    20:00 -4°C° 0.1 mm 2 mps 679 mmHg 95%
    21:00 -3°C° 0.1 mm 1 mps 679 mmHg 95%
    22:00 -3°C° 0.1 mm 1 mps 679 mmHg 95%
    23:00 -4°C° 0.1 mm 1 mps 679 mmHg 95%

    22 February, Thursday

    Time Temperature Precipitation Wind Pressure Humidity
    00:00 -4°C° 0.1 mm 1 mps 678 mmHg 94%
    01:00 -4°C° 0.1 mm 1 mps 678 mmHg 94%
    02:00 -4°C° 0.2 mm 1 mps 678 mmHg 94%
    03:00 -4°C° 0.2 mm 1 mps 677 mmHg 94%
    04:00 -4°C° 0.2 mm 1 mps 677 mmHg 94%
    05:00 -6°C° 0.1 mm 1 mps 677 mmHg 94%
    06:00 -6°C° 0.1 mm 1 mps 677 mmHg 94%
    07:00 -6°C° 0.1 mm 1 mps 676 mmHg 93%
    08:00 -6°C° 0.1 mm 2 mps 677 mmHg 92%
    09:00 -5°C° 0.1 mm 2 mps 677 mmHg 91%
    10:00 -3°C° 0.1 mm 2 mps 677 mmHg 89%
    11:00 -3°C° 0.1 mm 2 mps 676 mmHg 89%
    12:00 -2°C° 0.1 mm 2 mps 676 mmHg 88%
    13:00 -1°C° 0.1 mm 2 mps 676 mmHg 88%
    14:00 -1°C° 0.2 mm 2 mps 676 mmHg 89%
    15:00 -1°C° 0.2 mm 2 mps 676 mmHg 90%
    16:00 -1°C° 0.2 mm 2 mps 676 mmHg 91%
    17:00 -2°C° 0.2 mm 2 mps 676 mmHg 92%
    18:00 -3°C° 0.2 mm 2 mps 676 mmHg 94%
    19:00 -2°C° 0.2 mm 1 mps 676 mmHg 95%
    20:00 -2°C° 0.1 mm 1 mps 676 mmHg 95%
    21:00 -2°C° 0.1 mm 1 mps 676 mmHg 94%
    22:00 -3°C° 0.1 mm 1 mps 677 mmHg 94%
    23:00 -3°C° 0 mm 1 mps 676 mmHg 94%

    23 February, Friday

    Time Temperature Precipitation Wind Pressure Humidity
    00:00 -4°C° 0 mm 1 mps 676 mmHg 93%
    01:00 -4°C° 0 mm 1 mps 676 mmHg 93%
    02:00 -4°C° 0 mm 1 mps 676 mmHg 92%
    03:00 -6°C° 0 mm 1 mps 676 mmHg 92%
    04:00 -6°C° 0 mm 1 mps 675 mmHg 91%
    05:00 -6°C° 0 mm 1 mps 676 mmHg 91%
    06:00 -7°C° 0 mm 1 mps 676 mmHg 90%
    07:00 -7°C° 0 mm 1 mps 676 mmHg 90%
    08:00 -4°C° 0 mm 1 mps 676 mmHg 88%
    09:00 -2°C° 0 mm 1 mps 677 mmHg 86%
    10:00 0°C° 0 mm 1 mps 677 mmHg 84%
    11:00 -1°C° 0 mm 2 mps 677 mmHg 85%
    12:00 +1°C° 0 mm 2 mps 677 mmHg 87%
    13:00 +1°C° 0 mm 2 mps 677 mmHg 88%
    14:00 +1°C° 0.1 mm 2 mps 677 mmHg 88%
    15:00 +1°C° 0.1 mm 2 mps 677 mmHg 89%
    16:00 +1°C° 0.1 mm 2 mps 677 mmHg 90%
    17:00 -1°C° 0.1 mm 2 mps 678 mmHg 91%
    18:00 -2°C° 0.1 mm 2 mps 678 mmHg 93%
    19:00 -3°C° 0.1 mm 2 mps 678 mmHg 95%
    20:00 -4°C° 0 mm 2 mps 678 mmHg 95%
    21:00 -4°C° 0 mm 2 mps 679 mmHg 94%
    22:00 -3°C° 0 mm 1 mps 679 mmHg 94%
    23:00 -3°C° 0 mm 1 mps 679 mmHg 94%

    24 February, Saturday

    Time Temperature Precipitation Wind Pressure Humidity
    00:00 -3°C° 0 mm 1 mps 680 mmHg 94%
    01:00 -4°C° 0 mm 1 mps 680 mmHg 93%
    02:00 -4°C° 0 mm 1 mps 680 mmHg 93%
    03:00 -4°C° 0 mm 1 mps 680 mmHg 92%
    04:00 -6°C° 0 mm 1 mps 680 mmHg 92%
    05:00 -6°C° 0 mm 1 mps 681 mmHg 92%
    06:00 -6°C° 0 mm 1 mps 681 mmHg 92%
    07:00 -7°C° 0 mm 1 mps 682 mmHg 91%
    08:00 -4°C° 0 mm 1 mps 682 mmHg 90%
    09:00 -2°C° 0 mm 1 mps 683 mmHg 88%
    10:00 -3°C° 0 mm 2 mps 683 mmHg 86%
    11:00 -2°C° 0 mm 2 mps 683 mmHg 86%
    12:00 -1°C° 0 mm 2 mps 683 mmHg 86%
    13:00 -1°C° 0 mm 2 mps 683 mmHg 86%
    14:00 -1°C° 0 mm 2 mps 683 mmHg 86%
    15:00 -2°C° 0 mm 2 mps 683 mmHg 85%
    16:00 -2°C° 0 mm 2 mps 682 mmHg 85%
    17:00 -4°C° 0 mm 2 mps 682 mmHg 87%
    18:00 -6°C° 0 mm 2 mps 683 mmHg 90%
    19:00 -8°C° 0 mm 2 mps 683 mmHg 93%
    20:00 -7°C° 0 mm 1 mps 683 mmHg 91%
    21:00 -8°C° 0 mm 1 mps 683 mmHg 90%
    22:00 -8°C° 0 mm 1 mps 683 mmHg 88%
    23:00 -9°C° 0 mm 1 mps 683 mmHg 88%
    Show more